Regional Weather Roundup
Issued by NWS

Home | Current Version | Previous Version | Graphics & Text | Print | Product List | Glossary On
Versions: 1 2 3 4 5 6 7 8 9 10 11 12 13 14 15 16 17 18 19 20 21 22 23 24 25 26 27 28 29 30 31 32 33 34 35 36 37 38 39 40 41 42 43 44 45 46 47 48 49 50
000
ASUS43 KTOP 301308
RWRKS

WEATHER ROUNDUP FOR KANSAS
NATIONAL WEATHER SERVICE GOODLAND KS
800 AM CDT THU OCT 30 2014

NOTE:  "FAIR" INDICATES FEW OR NO CLOUDS BELOW 12,000 FEET WITH NO
SIGNIFICANT WEATHER AND/OR OBSTRUCTIONS TO VISIBILITY.

KSZ001>006-013>018-027>032-041>047-301400-
NORTHWEST KANSAS

CITY           SKY/WX    TMP DP  RH WIND       PRES   REMARKS
GOODLAND       CLEAR     37  26  64 W8        30.26R
HAYS           CLEAR     46  27  46 NW14      30.15R
HILL CITY      CLEAR     46  27  47 NW10      30.18R
RUSSELL        CLEAR     47  32  56 NW15      30.12R
$$

KSZ061>065-074>080-084>089-301400-
SOUTHWEST KANSAS

CITY           SKY/WX    TMP DP  RH WIND       PRES   REMARKS
DODGE CITY     CLEAR     44  28  53 NW9       30.17R
ELKHART          N/A     45  26  47 NW7         N/A
GARDEN CITY    CLEAR     42  28  57 N10       30.19R
GREAT BEND     CLEAR     46  30  53 NW10      30.14R
LIBERAL        CLEAR     43  30  61 NW9       30.20R
PRATT          CLEAR     45  34  65 NW13      30.13R
$$

KSZ066>073-081>083-090>101-301400-
SOUTHEAST KANSAS

CITY           SKY/WX    TMP DP  RH WIND       PRES   REMARKS
CHANUTE        MOCLDY    52  42  69 S15       30.03F
COFFEYVILLE    PTCLDY    48  43  82 S8        30.07S
HUTCHINSON     CLEAR     46  36  68 NW8       30.07R
MEDICINE LODGE   N/A     42  35  76 NW5       30.10R
NEWTON         CLEAR     48  32  53 W9        30.07R
PARSONS        MOCLDY    49  43  80 S7        30.07S
WICHITA INTL   PTCLDY    46  35  65 SW8       30.06R
WICHITA JABRA  PTCLDY    49  36  61 W9        30.06R
WICHITA MCCONL MOCLDY    49  36  62 SW8       30.06R
WINFIELD       CLOUDY    51  39  63 SW12      30.08S
$$

KSZ007>012-019>026-033>040-048>060-102>105-301400-
NORTHEAST KANSAS

CITY           SKY/WX    TMP DP  RH WIND       PRES   REMARKS
CONCORDIA      CLEAR     43  37  79 N10       30.08R
EMPORIA        MOCLDY    51  37  58 W12       30.01R
LAWRENCE       MOCLDY    46  41  82 CALM      30.01R
MANHATTAN      CLEAR     46  36  68 SW3       30.03R
MARYSVILLE     CLEAR     43  37  81 NW8       30.04R
OLATHE IND     MOCLDY    46  40  79 S5        30.01S
OLATHE EXE     MOCLDY    49  41  74 S8        30.00F
SALINA         CLEAR     48  38  68 NW13      30.08R
TOPEKA BILLARD MOCLDY    51  40  65 CALM      30.01R
TOPEKA FORBES  MOCLDY    48  40  73 S6        30.00R
$$



USA.gov is the U.S. government's official web portal to all federal, state and local government web resources and services.